TimeMDT,TemperatureF,Dew PointF,Humidity,Sea Level PressureIn,VisibilityMPH,Wind Direction,Wind SpeedMPH,Gust SpeedMPH,PrecipitationIn,Events,Conditions,WindDirDegrees,DateUTC
12:53 AM,46.9,32.0,56,30.01,10.0,SSW,11.5,-,N/A,,Clear,200,2013-04-03 06:53:00
1:53 AM,46.9,30.9,54,30.01,10.0,SSW,12.7,-,N/A,,Clear,210,2013-04-03 07:53:00
2:53 AM,46.0,30.9,56,30.01,10.0,SW,15.0,-,N/A,,Clear,220,2013-04-03 08:53:00
3:53 AM,44.1,32.0,63,30.02,10.0,SW,11.5,-,N/A,,Clear,220,2013-04-03 09:53:00
4:53 AM,42.1,33.1,70,30.03,10.0,SSW,10.4,-,N/A,,Clear,210,2013-04-03 10:53:00
5:53 AM,42.1,33.1,70,30.05,10.0,SW,8.1,-,N/A,,Clear,220,2013-04-03 11:53:00
6:53 AM,39.0,32.0,76,30.05,10.0,SW,6.9,-,N/A,,Clear,230,2013-04-03 12:53:00
7:53 AM,42.1,34.0,73,30.07,10.0,WSW,9.2,-,N/A,,Clear,240,2013-04-03 13:53:00
8:53 AM,48.0,36.0,63,30.08,10.0,WSW,6.9,-,N/A,,Clear,240,2013-04-03 14:53:00
9:53 AM,55.9,37.0,49,30.10,10.0,WSW,8.1,-,N/A,,Clear,250,2013-04-03 15:53:00
10:53 AM,59.0,37.0,44,30.09,10.0,West,8.1,-,N/A,,Clear,280,2013-04-03 16:53:00
11:53 AM,62.1,36.0,38,30.09,10.0,West,12.7,21.9,N/A,,Scattered Clouds,280,2013-04-03 17:53:00
12:53 PM,61.0,37.0,41,30.08,10.0,WSW,13.8,-,N/A,,Mostly Cloudy,240,2013-04-03 18:53:00
1:53 PM,64.0,35.1,34,30.06,10.0,West,9.2,17.3,N/A,,Scattered Clouds,260,2013-04-03 19:53:00
2:53 PM,66.0,33.1,29,30.04,10.0,WSW,11.5,-,N/A,,Clear,240,2013-04-03 20:53:00
3:53 PM,66.0,34.0,30,30.03,10.0,West,8.1,-,N/A,,Clear,270,2013-04-03 21:53:00
4:53 PM,66.9,34.0,30,30.01,10.0,West,11.5,-,N/A,,Clear,260,2013-04-03 22:53:00
5:53 PM,66.9,34.0,30,30.01,10.0,WNW,8.1,-,N/A,,Clear,300,2013-04-03 23:53:00
6:53 PM,64.0,35.1,34,30.03,10.0,WNW,5.8,-,N/A,,Clear,290,2013-04-04 00:53:00
7:53 PM,60.1,36.0,41,30.02,10.0,Calm,Calm,-,N/A,,Clear,0,2013-04-04 01:53:00
8:53 PM,54.0,41.0,62,30.02,10.0,Calm,Calm,-,N/A,,Clear,0,2013-04-04 02:53:00
9:53 PM,46.9,36.0,66,30.03,10.0,Calm,Calm,-,N/A,,Clear,0,2013-04-04 03:53:00
10:53 PM,45.0,37.0,74,30.03,10.0,SSW,4.6,-,N/A,,Clear,200,2013-04-04 04:53:00
11:53 PM,45.0,37.0,74,30.01,10.0,Calm,Calm,-,N/A,,Clear,0,2013-04-04 05:53:00